TimeCST,TemperatureF,Dew PointF,Humidity,Sea Level PressureIn,VisibilityMPH,Wind Direction,Wind SpeedMPH,Gust SpeedMPH,PrecipitationIn,Events,Conditions,WindDirDegrees,DateUTC
12:15 AM,22.6,22.6,100,29.84,4.0,North,13.8,-,N/A,,Overcast,350,2013-12-20 06:15:00
12:35 AM,22.8,22.8,100,29.84,4.0,North,13.8,-,N/A,,Overcast,360,2013-12-20 06:35:00
12:55 AM,23.2,23.2,100,29.82,4.0,North,19.6,25.3,N/A,,Overcast,10,2013-12-20 06:55:00
1:15 AM,22.8,22.8,100,29.83,4.0,North,17.3,26.5,N/A,,Overcast,360,2013-12-20 07:15:00
1:35 AM,22.1,22.1,100,29.84,4.0,North,19.6,-,N/A,,Overcast,360,2013-12-20 07:35:00
1:55 AM,21.6,21.6,100,29.84,4.0,North,17.3,25.3,N/A,,Overcast,360,2013-12-20 07:55:00
2:15 AM,21.4,21.4,100,29.85,4.0,North,13.8,23.0,N/A,,Overcast,10,2013-12-20 08:15:00
2:35 AM,21.0,21.0,100,29.86,4.0,North,15.0,-,N/A,,Overcast,360,2013-12-20 08:35:00
2:55 AM,20.8,20.8,100,29.86,4.0,North,13.8,-,N/A,,Overcast,350,2013-12-20 08:55:00
3:15 AM,20.3,20.3,100,29.87,5.0,North,16.1,-,N/A,,Overcast,360,2013-12-20 09:15:00
3:35 AM,19.9,19.9,100,29.87,4.0,North,13.8,-,N/A,,Overcast,350,2013-12-20 09:35:00
3:55 AM,19.4,19.4,100,29.88,5.0,North,15.0,23.0,N/A,,Overcast,360,2013-12-20 09:55:00
4:15 AM,19.2,19.2,100,29.89,7.0,NNW,17.3,23.0,N/A,,Overcast,340,2013-12-20 10:15:00
4:35 AM,18.9,18.5,98,29.89,7.0,NNW,16.1,-,N/A,,Overcast,340,2013-12-20 10:35:00
4:55 AM,18.1,17.8,98,29.89,7.0,NNW,15.0,-,N/A,,Overcast,330,2013-12-20 10:55:00
5:15 AM,16.9,16.3,98,29.89,7.0,NNW,16.1,21.9,N/A,,Overcast,340,2013-12-20 11:15:00
5:35 AM,16.3,15.8,98,29.89,7.0,NNW,17.3,21.9,N/A,,Overcast,340,2013-12-20 11:35:00
5:55 AM,16.0,15.4,98,29.91,7.0,North,17.3,24.2,N/A,,Overcast,350,2013-12-20 11:55:00
6:15 AM,15.8,14.9,96,29.91,7.0,NNW,18.4,-,N/A,,Overcast,340,2013-12-20 12:15:00
6:35 AM,15.6,14.9,97,29.90,7.0,North,17.3,20.7,N/A,,Overcast,350,2013-12-20 12:35:00
6:55 AM,15.6,14.9,97,29.91,5.0,NNW,17.3,20.7,N/A,,Overcast,340,2013-12-20 12:55:00
7:15 AM,15.6,14.9,97,29.92,5.0,NNW,17.3,23.0,N/A,,Overcast,340,2013-12-20 13:15:00
7:35 AM,15.4,14.7,97,29.92,5.0,North,11.5,-,N/A,,Overcast,350,2013-12-20 13:35:00
7:55 AM,15.1,14.0,95,29.94,4.0,NNW,15.0,21.9,N/A,Snow,Light Snow,330,2013-12-20 13:55:00
8:15 AM,14.9,13.8,95,29.93,4.0,NNW,15.0,-,N/A,Snow,Light Snow,340,2013-12-20 14:15:00
8:35 AM,14.9,13.6,95,29.94,4.0,NNW,17.3,21.9,N/A,Snow,Light Snow,340,2013-12-20 14:35:00
8:55 AM,14.9,13.1,93,29.95,3.0,NNW,18.4,21.9,N/A,Snow,Light Snow,340,2013-12-20 14:55:00
9:15 AM,15.3,13.1,91,29.95,3.0,NNW,13.8,-,N/A,Snow,Light Snow,340,2013-12-20 15:15:00
9:35 AM,15.4,13.6,93,29.96,3.0,NNW,10.4,18.4,N/A,Snow,Light Snow,340,2013-12-20 15:35:00
9:55 AM,15.6,13.3,90,29.97,4.0,NNW,13.8,-,N/A,Snow,Light Snow,340,2013-12-20 15:55:00
10:15 AM,15.6,13.3,90,29.96,4.0,North,15.0,-,N/A,,Overcast,350,2013-12-20 16:15:00
10:35 AM,16.2,13.6,90,29.96,3.0,NNW,15.0,-,N/A,Snow,Light Snow,340,2013-12-20 16:35:00
10:55 AM,15.8,13.1,89,29.96,4.0,NNW,12.7,16.1,N/A,Snow,Light Snow,340,2013-12-20 16:55:00
11:15 AM,16.0,13.3,89,29.96,5.0,NNW,13.8,-,N/A,Snow,Light Snow,340,2013-12-20 17:15:00
11:35 AM,16.0,13.1,88,29.96,4.0,NNW,11.5,-,N/A,Snow,Light Snow,340,2013-12-20 17:35:00
11:55 AM,16.3,13.3,88,29.94,3.0,NNW,10.4,-,N/A,Snow,Light Snow,330,2013-12-20 17:55:00
12:15 PM,16.7,13.8,88,29.92,5.0,NNW,12.7,-,N/A,Snow,Light Snow,340,2013-12-20 18:15:00
12:35 PM,16.9,14.0,88,29.92,4.0,NNW,10.4,-,N/A,Snow,Light Snow,340,2013-12-20 18:35:00
12:55 PM,17.2,14.2,88,29.92,4.0,NNW,11.5,-,N/A,Snow,Light Snow,330,2013-12-20 18:55:00
1:15 PM,17.4,14.4,88,29.91,4.0,NW,10.4,-,N/A,Snow,Light Snow,320,2013-12-20 19:15:00
1:35 PM,17.4,14.2,87,29.90,5.0,NNW,9.2,-,N/A,,Overcast,340,2013-12-20 19:35:00
1:55 PM,17.4,14.2,87,29.90,5.0,NNW,10.4,-,N/A,Snow,Light Snow,340,2013-12-20 19:55:00
2:15 PM,17.6,14.4,87,29.91,5.0,NNW,8.1,-,N/A,Snow,Light Snow,330,2013-12-20 20:15:00
2:35 PM,18.0,14.7,87,29.91,4.0,NNW,8.1,-,N/A,Snow,Light Snow,330,2013-12-20 20:35:00
2:55 PM,17.8,14.4,86,29.91,4.0,NW,8.1,-,N/A,Snow,Light Snow,320,2013-12-20 20:55:00
3:15 PM,18.1,14.7,86,29.91,5.0,NW,6.9,-,N/A,,Overcast,320,2013-12-20 21:15:00
3:35 PM,18.3,14.7,86,29.92,5.0,NNW,9.2,-,N/A,,Overcast,330,2013-12-20 21:35:00
3:55 PM,18.3,14.7,86,29.92,5.0,NNW,5.8,-,N/A,,Overcast,340,2013-12-20 21:55:00
4:15 PM,18.3,14.9,86,29.92,5.0,NW,4.6,-,N/A,,Overcast,320,2013-12-20 22:15:00
4:35 PM,18.5,14.9,86,29.92,7.0,NNW,6.9,-,N/A,,Overcast,330,2013-12-20 22:35:00
4:55 PM,18.1,14.4,85,29.93,7.0,NW,8.1,-,N/A,,Overcast,320,2013-12-20 22:55:00
5:15 PM,18.1,14.2,84,29.95,10.0,NW,8.1,-,N/A,,Overcast,320,2013-12-20 23:15:00
5:35 PM,18.3,14.5,85,29.94,10.0,NW,8.1,-,N/A,,Overcast,320,2013-12-20 23:35:00
5:55 PM,18.1,14.4,85,29.91,10.0,North,5.8,-,N/A,,Overcast,350,2013-12-20 23:55:00
6:15 PM,18.1,14.4,85,29.92,10.0,NNW,6.9,-,N/A,,Overcast,340,2013-12-21 00:15:00
6:35 PM,18.1,14.5,86,29.91,10.0,NNW,5.8,-,N/A,,Overcast,340,2013-12-21 00:35:00
6:55 PM,18.1,14.5,86,29.89,10.0,North,4.6,-,N/A,,Overcast,360,2013-12-21 00:55:00
7:15 PM,18.1,14.4,85,29.90,7.0,NNW,4.6,-,N/A,,Overcast,340,2013-12-21 01:15:00
7:35 PM,18.1,14.0,84,29.91,7.0,NNW,5.8,-,N/A,,Overcast,330,2013-12-21 01:35:00
7:55 PM,18.0,14.0,84,29.89,7.0,Calm,Calm,-,N/A,,Overcast,0,2013-12-21 01:55:00
8:15 PM,18.1,14.0,84,29.90,7.0,NW,4.6,-,N/A,,Overcast,320,2013-12-21 02:15:00
8:35 PM,18.1,14.4,85,29.89,7.0,NW,5.8,-,N/A,,Overcast,320,2013-12-21 02:35:00
8:55 PM,18.1,14.0,84,29.88,7.0,NNW,8.1,-,N/A,,Overcast,330,2013-12-21 02:55:00
9:15 PM,18.1,14.4,85,29.89,7.0,NNW,5.8,-,N/A,,Overcast,330,2013-12-21 03:15:00
9:35 PM,18.3,14.2,84,29.89,7.0,NNW,4.6,-,N/A,,Overcast,330,2013-12-21 03:35:00
9:55 PM,18.3,14.0,83,29.87,7.0,NW,3.5,-,N/A,,Overcast,320,2013-12-21 03:55:00
10:15 PM,18.5,14.5,85,29.89,7.0,NNW,3.5,-,N/A,,Overcast,340,2013-12-21 04:15:00
10:35 PM,18.5,14.0,83,29.89,7.0,Calm,Calm,-,N/A,,Overcast,0,2013-12-21 04:35:00
10:55 PM,18.5,14.2,83,29.91,10.0,Calm,Calm,-,N/A,,Overcast,0,2013-12-21 04:55:00
11:15 PM,18.9,14.5,83,29.92,10.0,West,3.5,-,N/A,,Overcast,280,2013-12-21 05:15:00
11:35 PM,18.9,14.7,84,29.90,10.0,NW,3.5,-,N/A,,Overcast,310,2013-12-21 05:35:00
11:55 PM,18.9,14.7,84,29.90,10.0,WNW,3.5,-,N/A,,Overcast,290,2013-12-21 05:55:00